Retour au catalogue

COSMOS 1275 DEB

ActifPO
NORAD 17621·DEBRIS·🇷🇺 Russia

Lancé Jun 4, 1981 depuis Plesetsk Cosmodrome

Loading…

Prochains Passages (prochaines 24 heures)

TLE

FraisSource: Space-Track

Époque: Sep 14, 2026, 01:37 UTC

1 17621U 81053KQ  26257.06759990  .00005253  00000-0  13562-2 0  9995
2 17621  82.7759 134.5638 0029112 346.0630  13.9760 14.49606487120653

Suivez COSMOS 1275 DEB en temps réel avec AllMySat

Download on the App Store